Tracking 19247 objects as of 24-Sep-2018
HD Live streaming from Space Station
objects crossing your sky now

FENGYUN 1C DEB

Track FENGYUN 1C DEB now!
10-day predictions


NORAD ID: 30678
Int'l Code: 1999-025AQL
Perigee: 824.4 km
Apogee: 982.4 km
Inclination: 99.0 °
Period: 102.9 minutes
Semi major axis: 7274 km
RCS: 0.0357 m2 (small)
Launch date: May 10, 1999
Source: People's Republic of China (PRC)
Launch site: Taiyaun Space Center, China (TSC)

Note: This is SATELLITE DEBRIS
aabbcc
Your satellite tracking list
Your tracking list is empty




NASA's NSSDC Master Catalog

Two Line Element Set (TLE):
1 30678U 99025AQL 18266.59642453 +.00001216 +00000-0 +82432-3 0  9992
2 30678 099.0263 190.4394 0108605 021.7379 102.0259 13.99300543588225
Source of the keplerian elements: AFSPC